Location: Daouli
(14.8671°N, 3.2030°W)
Time: 02:11:19
(UTC+00:00)

H-2A R/B (2) - Pass Details

Date: 29 October 2020
Orbit: 481 x 34361 km, 28.4° (Epoch: 01 December)

Event Time Altitude Azimuth Distance (km) Brightness Sun altitude
Rises 11:30:24 0° 232° (SW) 17,416 9.1 60.7°
Reaches altitude 10° 11:51:20 10° 228° (SW) 20,686 9.7 61.4°
Drops below altitude 10° 17:09:19 10° 254° (WSW) 36,542 14.4 7.5°
Maximum altitude 20:31:37 37° 345° (NNW) 2,501 4.5 -40.5°
Enters shadow 20:31:56 37° 349° (N) 2,425 4.4 -40.5°
